Location: Unspecified
(43.4354°N, 0.0000°E)
Time: 07:31:56
(UTC+00:00)

Tiros 1 despin weight - Pass Details

Date: 25 June 2019
Orbit: 594 x 642 km, 48.2° (Epoch: 21 July)

Event Time Altitude Azimuth Distance (km) Brightness Sun altitude
Rises 00:32:49 0° 276° (W) 2,847 ? -22.8°
Reaches altitude 10° 00:35:12 10° 282° (WNW) 1,938 ? -22.7°
Maximum altitude 00:39:28 45° 356° (N) 818 ? -22.6°
Drops below altitude 10° 00:43:43 10° 70° (ENE) 1,927 ? -22.5°
Sets 00:46:05 0° 77° (ENE) 2,828 ? -22.4°
